Home > Weather > Tulsa > Past weeks

Flag for USA Past Weather in Tulsa, Oklahoma, USA — Yesterday and Last 2 Weeks

Now
83 °F

Broken clouds.


Feels Like: 85 °F
Forecast: 69 / 82 °F
Wind: 10 mph from Southeast

Location: Tulsa International Airport

Current Time: May 24, 2016 at 4:48:11 PM

Latest Report: May 24, 2016 at 3:53 PM


Visibility: 10 mi

Pressure: 29.87 "Hg

Humidity: 59%

Dew Point: 67 °F

Location of TulsaLocation

Past Weather in Tulsa — Graph

°F

Tulsa Temperature Yesterday

Maximum temperature yesterday: 72 °F (at 12:53 AM)
Minimum temperature yesterday: 63 °F (at 9:53 AM)
Average temperature yesterday: 69 °F

High & Low Weather Summary for the Past Weeks

 TemperatureHumidityPressure
High89 °F (May 10, 3:53 PM)100% (May 16, 7:59 AM)30.29 "Hg (May 16, 7:59 AM)
Low50 °F (May 14, 6:53 AM)26% (May 13, 3:53 PM)29.54 "Hg (May 9, 4:53 PM)
Average67 °F72%30.00 "Hg
* Reported May 9 3:53 PM — May 24 3:53 PM, Tulsa, Weather by CustomWeather, © 2016

Note: Actual official high and low records may vary slightly from our data, if they occured in-between our weather recording intervals... More about our weather records

Advertising

Tulsa Weather History for the Previous 24 Hours

Scroll right to see more
 ConditionsComfort  
Time TempWeatherWind HumidityBarometerVisibility
3:53 PM
Tue, May 24
83 °FBroken clouds.10 mph59%29.87 "Hg10 mi
2:53 PM86 °FBroken clouds.13 mph57%29.87 "Hg10 mi
1:53 PM85 °FPartly sunny.9 mph55%29.89 "Hg10 mi
12:53 PM84 °FPartly sunny.9 mph63%29.90 "Hg10 mi
11:53 AM83 °FBroken clouds.8 mph65%29.88 "Hg10 mi
10:53 AM79 °FBroken clouds.7 mph74%29.89 "Hg10 mi
9:53 AM77 °FMore clouds than sun.14 mph82%29.89 "Hg10 mi
9:00 AM73 °FOvercast.12 mph88%29.91 "Hg10 mi
7:53 AM72 °FOvercast.14 mph87%29.85 "Hg10 mi
6:53 AM71 °FOvercast.10 mph87%29.83 "Hg10 mi
5:53 AM70 °FOvercast.10 mph87%29.82 "Hg10 mi
4:53 AM69 °FOvercast.10 mph90%29.82 "Hg10 mi
3:53 AM69 °FOvercast.8 mph90%29.81 "Hg10 mi
2:53 AM69 °FMostly cloudy.8 mph90%29.81 "Hg10 mi
1:53 AM71 °FMostly cloudy.6 mph84%29.84 "Hg10 mi
12:53 AM70 °FMostly cloudy.9 mph90%29.84 "Hg10 mi
11:53 PM
Mon, May 23
70 °FOvercast.3 mph90%29.88 "Hg10 mi
10:53 PM70 °FPassing clouds.9 mph90%29.85 "Hg10 mi
9:53 PM70 °FMostly cloudy.10 mph90%29.83 "Hg10 mi
8:53 PM70 °FOvercast.10 mph90%29.82 "Hg10 mi
7:53 PM71 °FBroken clouds.9 mph87%29.82 "Hg10 mi
6:53 PM71 °FPartly sunny.8 mph87%29.81 "Hg10 mi
5:53 PM69 °FMostly cloudy.13 mph90%29.79 "Hg10 mi
5:03 PM70 °FLight rain. Cloudy.9 mph90%29.90 "Hg10 mi
4:55 PM70 °FMostly cloudy.8 mph90%29.91 "Hg10 mi
Weather by CustomWeather, © 2016

See weather overviewHow to use our weather pages